Wind_Speed
33 34 35 35 36 36 37 37 38 38 39 38 38 38 37 36 35 34 34 33 32 31 30 29 28 27 27 26 26 28 31 35 39 41 43 46 48 47 46 45 44 43 43 42 41 40 38 38 37 36 36 35 35 33 32 31 30 30 28 28 26 23 21 19 19 19 18 18 16 16 17 16 14 15 18 20 21 24 25 25 25 28 30 29 28 28 33 37
34 34 35 36 36 36 37 38 38 39 39 39 39 39 39 38 37 36 36 35 35 34 33 31 30 30 29 29 28 29 31 34 37 39 40 44 47 48 48 48 47 46 45 44 43 42 41 40 39 38 38 38 38 37 36 35 34 33 32 31 29 25 23 20 20 19 18 19 16 15 15 11 12 16 17 20 23 24 23 23 25 27 27 27 26 29 35 36
37 36 36 36 37 37 38 38 39 39 40 40 40 40 40 40 39 39 38 38 37 37 36 34 33 32 32 31 31 31 31 34 36 37 38 42 45 48 49 49 49 48 47 46 45 44 43 42 42 41 41 40 40 39 39 38 37 36 35 33 31 29 25 23 23 20 17 19 20 18 16 12 13 17 17 20 23 22 22 22 23 24 27 27 25 31 35 35
41 39 39 38 38 38 39 39 40 40 41 41 41 41 41 41 41 41 40 40 39 39 39 37 36 35 34 34 34 33 33 34 36 36 37 40 42 45 48 49 50 50 50 49 47 45 45 44 44 43 42 41 40 40 39 39 38 38 37 35 34 33 28 25 25 21 18 21 22 19 17 15 15 17 20 21 20 20 22 22 22 25 29 27 26 31 34 35
44 43 42 41 40 40 40 40 41 42 42 42 42 43 43 43 43 43 43 42 42 42 41 40 39 38 37 36 36 35 35 36 36 36 38 40 40 41 45 48 51 51 51 50 49 47 46 45 45 44 43 42 41 40 39 38 39 38 38 36 35 35 32 29 27 23 21 23 24 22 20 18 17 19 21 20 20 21 23 23 24 27 28 27 27 31 33 34
46 46 45 44 43 43 42 42 42 43 44 44 44 44 45 45 45 44 45 44 44 44 43 42 42 41 40 39 39 38 38 38 37 37 38 39 40 39 41 46 49 51 52 52 51 50 48 47 46 46 45 44 43 41 40 39 39 39 38 37 36 36 33 32 32 27 22 22 24 22 21 20 20 21 21 21 22 23 24 24 26 28 27 27 28 30 32 33
49 49 48 47 46 45 45 44 44 45 45 46 46 46 46 47 47 46 47 46 46 45 45 45 44 44 43 42 42 41 40 41 40 39 39 39 40 40 40 42 46 50 51 52 52 52 51 49 48 47 46 45 44 43 41 41 41 40 39 38 37 37 35 35 36 31 23 21 22 20 18 21 21 21 22 22 22 23 25 25 27 28 28 28 28 30 30 31
50 50 50 50 49 48 48 47 47 46 47 47 47 48 48 48 48 49 49 48 48 47 47 47 47 47 46 45 45 43 44 44 42 41 41 40 40 41 41 41 43 47 50 50 52 52 52 52 51 50 48 47 45 44 43 43 43 43 42 41 39 38 36 35 36 34 28 22 21 20 20 22 21 21 23 24 23 25 26 26 27 28 27 26 26 29 29 30
52 52 52 52 51 51 50 50 49 49 49 49 49 49 49 50 50 50 50 50 50 50 50 50 49 49 48 48 48 47 48 46 44 45 44 42 41 42 43 42 42 44 47 49 50 51 53 54 53 52 51 49 47 46 45 46 46 45 44 43 42 41 40 37 35 34 30 26 23 21 24 26 24 22 22 23 25 27 27 27 27 26 25 24 26 29 28 30
54 54 54 53 53 53 53 52 52 52 51 51 50 51 51 51 51 52 52 52 52 52 52 52 52 51 51 51 50 51 51 48 48 48 46 45 44 43 44 44 43 43 45 48 49 49 52 53 54 53 52 51 51 50 49 49 48 46 46 46 46 45 45 43 39 35 31 29 26 24 27 29 27 25 23 24 26 27 27 27 26 25 23 25 28 29 28 29
57 57 57 56 56 55 55 55 54 54 54 53 53 53 53 53 53 53 53 53 53 54 54 54 54 53 53 53 53 54 53 51 52 51 49 48 47 46 46 45 45 44 44 46 47 48 49 51 52 53 54 54 54 53 53 51 49 49 49 49 48 47 47 46 45 42 37 32 31 30 30 29 29 28 27 27 28 27 27 26 24 24 24 27 30 29 27 27
60 60 60 59 59 58 58 57 57 56 56 55 55 55 55 55 55 55 55 55 55 55 55 56 56 56 55 55 55 56 55 55 55 54 52 51 50 49 48 47 47 46 45 45 46 48 48 48 49 52 54 54 55 54 54 54 53 53 52 51 50 49 48 48 47 46 44 40 38 37 34 32 32 31 30 29 28 26 26 24 22 22 25 28 28 26 26 25
64 63 63 62 62 61 61 61 60 59 59 58 58 58 58 57 57 57 57 57 57 57 57 57 57 57 57 57 57 58 58 58 58 57 56 54 53 52 51 50 50 48 48 46 46 47 47 47 46 49 52 53 54 53 54 56 57 56 55 53 52 50 50 50 49 48 47 44 41 40 38 36 34 33 32 30 28 26 24 23 20 22 26 28 25 24 24 21
67 67 67 66 65 65 64 64 63 62 62 61 61 60 60 60 59 59 59 58 58 58 59 59 59 59 59 60 59 60 60 60 60 60 59 57 56 55 54 53 52 51 50 49 48 47 47 47 46 47 48 51 53 52 55 57 57 57 56 55 54 53 52 51 50 48 47 46 43 42 40 39 36 34 32 31 30 27 25 23 21 23 27 26 23 22 22 19
68 69 69 69 68 68 67 67 66 66 65 65 64 64 64 63 62 62 61 60 60 60 60 60 60 60 61 61 61 61 62 62 62 62 61 60 59 58 57 55 54 54 53 51 50 49 48 47 46 46 47 50 51 51 54 56 55 55 55 57 56 55 54 52 50 49 48 46 44 43 41 40 39 36 34 32 31 29 27 26 24 25 25 22 21 22 22 20
68 69 69 70 70 70 70 70 69 69 69 68 68 68 67 67 66 65 64 63 63 62 62 62 62 62 62 63 63 63 63 63 64 64 64 63 62 61 60 59 58 57 56 54 53 51 50 49 48 48 47 48 48 48 52 53 51 52 54 57 58 56 55 53 51 51 49 47 46 44 43 42 41 39 36 34 33 32 31 30 27 26 24 20 21 24 23 21
68 69 69 70 70 70 71 71 71 71 71 71 71 71 71 70 70 69 68 67 66 65 64 64 63 64 64 64 64 64 65 65 66 66 66 66 65 64 64 63 61 59 58 57 55 54 53 51 50 50 48 48 48 47 49 48 47 49 53 57 57 57 56 54 53 53 51 50 48 46 45 44 42 41 39 36 35 34 32 31 29 27 25 22 23 25 21 18
69 69 69 70 70 70 71 71 71 71 72 72 73 74 74 74 73 73 72 71 70 69 68 67 66 66 65 66 66 66 67 67 67 67 68 68 67 67 67 65 63 62 61 59 58 57 56 55 53 52 49 48 47 46 46 46 48 51 55 56 56 56 56 55 55 54 52 51 50 48 47 45 43 43 40 38 37 35 33 33 31 28 25 24 25 23 19 17
68 70 71 71 71 71 71 71 71 71 72 73 73 74 75 75 75 75 75 74 74 73 72 71 70 69 68 68 68 68 68 68 69 69 69 69 69 69 69 68 67 65 64 62 61 60 59 57 55 52 50 49 50 49 49 51 52 54 55 55 55 55 54 54 55 54 53 52 50 49 48 46 45 45 43 40 39 37 36 35 31 28 24 24 24 20 16 15
65 68 70 71 72 72 72 72 71 71 71 72 73 74 75 76 76 77 77 77 77 76 76 75 74 73 72 72 71 70 70 70 70 71 71 71 71 71 71 70 69 68 67 65 64 63 62 60 56 54 54 55 56 54 54 55 53 52 54 53 52 52 52 53 53 54 53 52 51 49 48 47 46 45 43 41 38 37 37 34 29 28 25 23 21 17 14 14
63 65 67 69 71 72 73 73 73 73 72 72 73 73 74 75 76 77 77 78 78 78 78 78 78 77 76 76 75 73 73 72 72 72 72 73 73 73 72 71 70 70 69 68 68 67 64 61 57 57 59 60 59 56 55 55 53 52 52 51 49 49 49 50 51 52 51 50 50 48 47 46 44 42 40 39 38 37 36 32 31 28 25 23 19 16 14 16
62 63 65 66 68 70 72 73 74 74 74 74 74 74 75 75 76 76 77 78 79 79 80 80 80 80 80 80 79 78 76 75 74 73 74 74 75 75 73 73 72 71 71 71 70 68 65 62 60 61 62 62 61 59 58 57 55 53 51 50 49 48 48 48 48 48 48 47 47 46 45 44 43 42 38 36 36 36 34 32 32 29 26 27 23 19 18 18
62 63 64 65 66 68 69 70 72 74 75 76 76 76 76 76 76 77 77 78 79 79 80 81 81 82 82 82 82 82 81 79 78 77 76 76 76 75 74 75 74 73 73 73 72 70 68 66 65 65 66 65 64 62 61 59 57 54 52 51 51 50 50 48 47 46 46 45 44 43 42 42 41 39 37 35 33 34 34 32 32 31 29 30 26 23 22 20
62 62 63 63 65 66 67 68 69 71 73 75 77 78 78 79 79 78 78 78 79 79 80 81 81 82 83 84 84 84 84 83 82 80 80 79 77 76 75 77 76 75 75 74 74 73 70 70 69 69 69 68 67 66 64 61 58 56 54 53 52 52 50 47 46 45 44 43 41 40 41 41 38 36 35 35 33 33 33 32 32 32 33 34 30 26 24 22
63 62 62 62 63 65 66 67 67 68 70 72 75 77 79 80 81 81 81 81 80 80 81 81 81 82 83 84 85 86 86 86 84 83 84 83 80 78 77 78 78 78 77 77 76 75 73 73 73 72 72 71 69 67 66 64 61 59 57 56 56 55 52 49 47 45 44 41 38 37 37 36 35 34 34 35 35 34 35 34 34 34 36 37 32 27 25 24
62 63 62 62 63 64 65 66 67 68 69 70 72 74 77 78 81 82 83 85 84 81 83 83 82 83 84 84 86 87 87 86 86 86 86 86 84 82 81 80 80 80 79 79 78 76 75 75 75 74 74 73 71 69 68 66 64 61 59 59 59 57 53 50 48 45 43 40 37 35 34 32 32 33 33 34 35 35 36 36 35 37 39 37 33 29 27 25
61 62 62 63 63 64 65 66 67 67 69 71 71 73 75 76 79 81 83 86 86 84 86 87 86 86 85 85 87 87 87 86 87 87 87 88 87 86 86 85 84 83 82 81 79 77 76 77 77 76 76 75 73 70 69 68 66 64 62 62 63 60 56 52 49 46 43 40 38 36 35 35 33 33 34 35 36 36 37 38 38 39 39 36 35 32 28 26
60 61 62 63 63 64 64 65 66 67 69 71 72 72 74 75 77 79 81 85 86 84 87 90 90 88 87 88 88 88 87 87 87 87 88 90 90 89 90 89 88 87 85 82 80 78 78 78 78 79 79 77 74 73 72 71 70 68 66 66 65 62 58 53 49 46 44 42 40 38 37 35 33 34 34 35 37 36 37 40 40 40 39 38 37 34 30 28
55 59 61 63 64 65 65 65 66 67 69 70 72 73 74 75 76 77 80 83 83 83 86 88 89 89 89 90 90 89 88 87 87 87 88 90 90 91 93 92 91 91 89 85 82 81 80 79 80 81 81 78 77 76 75 75 73 72 71 69 67 65 61 56 51 48 47 44 40 38 37 35 34 35 34 34 37 37 38 43 42 40 41 40 37 34 32 31
46 52 57 60 63 65 66 66 66 68 69 70 71 73 74 75 76 77 80 80 79 81 83 83 85 88 89 90 90 90 90 89 88 88 89 90 91 92 94 94 94 94 93 90 87 84 83 81 81 81 80 80 80 79 79 78 75 74 74 71 70 68 64 59 55 52 49 44 40 39 39 37 36 36 35 34 36 39 41 44 45 43 42 42 38 34 33 32
36 41 46 52 57 61 64 66 67 68 70 71 72 73 74 75 76 78 79 77 77 79 80 79 81 83 86 88 88 89 91 92 91 91 91 91 91 93 95 96 97 96 95 92 90 89 87 85 83 81 81 82 81 81 80 78 76 76 76 74 73 70 66 63 59 55 49 44 42 42 41 39 37 36 36 36 37 41 43 44 46 45 43 42 40 36 34 34
32 33 36 40 45 50 55 59 61 64 66 68 70 72 73 74 76 78 78 77 78 78 79 79 79 80 83 85 85 85 89 91 92 93 94 93 93 95 97 97 97 95 95 95 94 93 92 89 85 83 84 84 82 82 81 78 78 80 79 77 75 72 69 67 62 56 49 45 46 46 43 40 38 38 38 37 38 42 46 47 47 46 44 43 42 40 38 35
34 34 34 35 37 40 44 47 51 54 57 60 62 65 67 68 71 74 75 75 77 78 79 79 78 79 81 82 82 83 86 88 89 92 95 96 97 99 99 98 96 96 97 98 96 96 95 91 88 86 86 85 84 83 82 81 82 83 81 78 76 73 72 69 65 58 52 49 50 50 46 42 40 41 40 38 39 41 46 50 50 48 46 45 43 42 39 36
37 37 36 36 37 38 39 41 44 46 49 52 54 57 59 61 65 67 67 69 71 73 75 75 76 77 79 79 79 82 85 84 85 89 94 96 98 102 103 100 97 97 98 98 97 96 96 94 92 91 90 88 85 84 84 85 85 85 83 80 78 75 73 72 69 63 57 54 54 54 48 42 42 43 42 40 40 42 45 49 51 51 48 45 45 43 39 37
40 39 38 38 38 39 40 41 42 44 45 47 49 51 53 56 59 61 61 63 66 67 69 70 70 72 73 74 75 79 81 81 83 88 92 94 98 104 104 99 97 97 97 98 98 97 97 97 97 96 96 94 90 86 87 88 89 88 85 82 80 77 75 74 72 68 63 58 58 57 50 45 46 46 45 42 41 42 45 47 50 52 50 48 47 44 39 37
42 41 40 39 39 39 41 42 43 45 45 46 47 48 50 52 53 55 56 58 61 62 63 64 65 65 68 69 71 73 75 76 80 85 90 92 96 101 101 97 98 100 100 100 100 99 99 99 100 100 99 97 93 89 90 91 90 89 87 84 81 78 76 77 75 73 68 62 60 58 53 50 50 49 47 44 41 42 45 48 51 54 54 51 49 46 41 38
41 41 40 41 41 40 41 42 43 45 45 47 47 47 49 51 51 52 54 55 56 58 59 59 59 61 63 66 65 65 68 72 75 79 86 89 91 96 96 95 99 102 103 103 103 102 101 100 101 100 98 98 95 92 92 93 92 90 88 85 83 81 80 80 79 77 71 64 62 60 57 54 52 50 49 47 44 43 46 50 53 55 56 53 51 49 44 40
38 39 38 39 40 40 41 41 42 44 45 46 47 47 48 50 51 52 53 53 55 56 57 57 57 58 61 62 60 59 65 70 69 72 81 85 87 91 93 94 98 103 105 106 105 104 101 100 102 102 100 99 98 96 95 95 93 90 88 87 86 85 84 83 82 78 73 68 66 64 61 58 54 53 52 49 46 45 47 51 54 57 58 55 53 51 47 44
35 36 35 35 36 37 38 38 39 40 42 43 44 45 46 48 49 50 51 52 53 54 56 56 56 57 59 59 58 58 62 66 65 67 76 81 82 86 89 92 96 101 105 107 107 106 103 102 104 104 102 101 100 100 99 97 95 93 90 88 88 88 86 85 84 81 77 73 70 67 64 61 58 56 55 52 50 48 47 50 55 59 61 58 53 51 49 47
32 33 33 32 32 33 33 34 35 36 37 38 40 41 42 44 45 46 47 48 50 51 53 53 53 55 57 57 58 59 60 62 64 68 72 75 78 81 85 89 93 98 103 106 108 108 106 106 106 105 104 102 102 102 101 101 101 99 95 91 90 89 88 86 85 83 80 77 73 70 66 64 62 60 59 56 53 50 48 50 55 61 63 60 55 52 50 47
31 31 31 30 30 30 31 32 32 33 34 35 37 37 38 39 40 42 43 44 46 47 49 50 50 52 54 55 56 58 58 60 64 67 69 71 75 77 79 83 88 95 100 104 108 109 108 107 107 107 106 104 104 105 104 105 106 103 98 95 92 91 89 87 85 84 81 78 75 73 70 68 67 65 64 60 57 55 53 52 56 63 65 61 57 54 51 47
31 30 29 29 29 29 29 30 31 31 32 33 34 35 36 37 38 39 41 42 44 45 46 47 48 50 52 52 54 56 58 59 62 65 67 70 73 73 74 79 85 92 97 103 108 109 107 107 107 108 107 105 106 107 106 106 108 107 103 99 96 94 93 90 88 86 83 80 79 77 74 73 72 70 68 65 62 60 58 55 57 64 67 63 60 57 52 48
30 28 28 28 28 28 28 28 29 30 31 31 32 34 35 36 37 38 39 41 42 44 45 44 46 49 50 51 52 54 57 58 61 64 65 69 71 69 70 76 82 88 95 102 106 107 106 108 110 111 110 107 106 106 104 105 107 108 106 103 100 97 96 94 91 89 88 85 83 82 79 77 76 73 70 67 64 61 60 58 56 62 68 66 63 60 55 50
30 28 26 26 26 27 27 27 28 29 30 30 31 32 33 33 35 36 37 39 40 42 43 43 44 47 48 50 51 53 55 57 60 62 63 67 69 67 69 75 79 86 94 99 103 105 106 109 111 112 112 110 108 108 107 106 107 107 107 106 103 99 98 98 95 93 92 89 87 86 84 81 79 76 73 69 66 64 62 60 58 61 67 68 65 62 59 55
31 28 26 25 25 25 25 26 27 28 28 29 29 30 31 31 33 34 35 37 38 39 41 41 42 44 46 48 49 51 53 55 58 61 62 65 67 66 69 73 78 85 93 97 99 103 105 108 111 112 113 111 110 111 111 111 110 111 111 110 105 102 101 100 96 95 93 90 89 88 87 84 81 79 75 71 70 67 64 63 61 61 66 69 67 64 61 59
31 29 27 26 24 24 24 24 25 26 26 26 27 28 29 30 31 33 34 35 37 38 39 40 41 43 45 47 47 48 51 54 58 60 61 64 66 65 68 72 76 85 92 94 97 101 104 107 109 112 113 112 112 113 113 113 112 113 113 112 109 107 106 102 98 95 93 92 91 89 88 86 84 82 78 75 73 70 67 66 66 64 66 69 70 66 63 61
32 29 27 26 24 23 23 23 23 24 24 24 25 26 27 28 30 31 32 34 35 36 37 38 40 41 42 44 45 47 50 54 57 59 60 62 63 63 66 69 74 82 89 92 96 99 102 105 108 111 112 113 114 115 114 114 113 112 113 114 114 112 110 106 101 95 93 94 92 89 88 88 87 85 82 79 78 75 73 73 73 72 70 72 73 69 64 61
34 30 27 26 24 23 22 22 22 22 22 22 23 24 25 26 28 29 31 32 34 34 34 36 38 39 39 40 43 46 49 53 55 56 57 58 59 61 63 67 72 78 84 88 93 96 99 102 105 109 112 113 116 116 115 115 115 113 114 117 117 114 111 107 101 95 93 93 91 89 90 92 90 87 84 83 81 80 78 78 78 75 72 72 71 66 62 62
36 32 29 26 24 23 22 21 20 21 21 21 21 22 23 24 26 27 29 30 31 32 32 33 34 35 36 38 42 44 48 51 52 51 52 55 57 58 61 64 69 74 78 84 89 93 96 98 102 106 110 113 116 116 115 117 117 116 116 117 116 114 110 107 102 97 95 94 92 92 93 93 93 90 88 86 83 80 80 80 79 76 72 70 68 65 64 64
35 31 28 26 24 22 21 20 20 20 20 20 21 21 22 23 25 26 27 28 29 29 30 30 31 32 34 37 39 42 46 48 46 46 49 52 53 54 57 61 65 69 73 79 85 90 92 95 98 103 107 111 114 115 114 116 117 117 117 117 116 113 110 108 105 101 99 97 95 95 96 95 95 93 91 88 84 83 84 84 83 79 74 71 70 69 68 67
35 32 28 26 23 22 21 20 20 19 20 20 20 21 21 23 24 25 26 26 27 27 27 28 29 31 33 34 37 41 43 43 42 43 47 50 50 49 52 56 60 64 68 74 81 87 90 92 96 100 104 108 112 115 114 114 116 117 117 116 116 114 112 109 108 106 104 100 97 97 97 96 95 94 92 90 90 90 89 87 86 82 77 74 72 71 70 70
37 33 30 27 24 22 21 20 20 19 19 20 20 21 21 22 23 24 24 25 25 25 25 26 27 29 31 32 36 39 40 38 38 40 44 46 47 46 48 51 54 59 64 69 76 82 86 89 93 97 101 105 110 114 114 113 116 118 117 116 116 115 114 112 111 110 108 105 103 101 99 97 97 97 97 97 96 95 91 88 88 86 81 77 75 73 72 71
Wind_Direction
262 260 258 256 254 253 251 249 248 247 246 245 244 243 242 240 237 235 234 234 234 232 230 228 226 224 223 224 224 223 221 220 219 219 221 222 221 220 220 220 220 220 221 221 220 219 219 220 220 219 219 219 219 218 217 218 221 221 223 231 235 234 237 245 252 255 263 267 265 260 260 270 284 288 288 297 302 301 303 306 310 314 316 317 319 325 331 335
262 261 259 257 255 253 252 250 248 247 246 245 244 243 241 240 237 235 234 233 233 233 231 229 227 226 224 224 225 226 224 221 219 219 221 223 222 222 222 222 222 221 222 222 221 220 219 220 220 220 220 221 221 220 220 221 224 225 226 230 233 237 238 241 253 258 261 269 268 258 256 261 267 268 279 295 299 300 302 305 309 310 314 316 318 326 332 335
261 260 259 257 255 253 252 250 249 247 246 244 244 243 241 240 238 236 233 232 233 233 233 231 229 227 226 225 225 226 226 224 221 219 221 223 223 223 223 224 224 223 223 223 222 221 220 220 220 220 220 221 222 222 222 222 225 228 229 231 233 238 239 239 250 251 251 261 258 254 258 261 264 269 277 285 291 299 301 305 308 309 313 313 316 326 332 334
259 259 258 257 255 253 251 250 248 247 246 244 243 242 241 240 239 237 234 232 231 232 233 232 230 228 227 226 226 226 227 227 224 221 221 221 223 225 225 225 225 225 225 224 224 223 222 222 222 222 222 222 223 224 224 224 226 229 230 232 233 238 239 240 247 243 240 251 254 254 260 264 260 268 280 283 287 294 296 302 304 306 313 313 316 325 329 331
260 259 258 257 256 254 251 249 248 247 246 245 243 242 241 240 239 237 235 233 231 231 231 232 231 230 228 227 227 227 228 229 226 224 223 221 221 224 226 227 227 226 226 226 225 224 224 224 224 224 224 224 225 226 226 227 229 230 232 233 235 238 238 238 243 240 238 248 255 256 259 261 259 269 282 282 283 290 294 299 300 303 309 310 315 322 325 328
261 260 259 258 257 255 253 251 248 247 246 245 244 242 241 240 239 238 237 234 232 231 231 231 232 231 230 228 228 227 229 229 227 227 225 223 221 222 225 227 228 228 228 227 227 226 225 225 225 225 225 225 225 226 227 228 230 232 233 234 236 239 238 237 239 238 240 246 254 258 258 262 267 276 279 279 284 291 295 296 298 302 305 308 314 319 322 326
264 262 261 259 258 257 255 253 251 249 247 245 244 243 242 241 240 239 238 236 234 233 231 231 231 232 231 229 228 228 230 229 227 228 226 225 224 222 223 226 228 228 228 229 229 228 227 227 226 226 226 226 227 226 227 228 230 231 232 233 235 238 238 239 238 237 240 246 253 256 255 260 268 272 273 276 282 287 291 293 297 301 305 307 310 315 319 325
264 263 262 261 260 258 257 255 254 252 249 247 245 244 243 242 241 239 238 237 236 234 233 232 231 231 231 231 229 228 231 229 227 228 227 226 227 225 223 224 227 229 229 229 229 229 229 229 228 227 227 227 227 227 227 228 229 229 230 230 232 234 236 238 238 237 239 242 249 254 257 261 259 261 269 274 276 281 286 290 294 299 303 304 306 312 316 321
262 262 261 261 261 260 258 257 255 254 252 250 248 246 245 243 242 241 240 238 237 236 234 233 232 231 231 231 230 230 230 229 228 228 227 226 227 228 225 223 225 228 229 228 229 230 230 230 229 229 228 228 228 228 229 229 230 229 229 229 230 230 231 233 234 234 236 237 240 246 254 261 261 262 269 273 275 279 283 287 292 295 297 298 304 310 311 317
261 260 259 259 259 259 258 258 256 255 253 252 250 249 247 246 244 243 241 240 238 237 236 235 234 233 232 231 231 231 230 229 229 228 226 226 226 228 228 226 224 226 228 229 228 229 230 231 231 230 230 230 229 229 229 230 230 230 230 229 228 228 228 230 230 230 232 233 235 236 242 252 260 263 265 268 273 278 281 284 287 289 291 294 302 306 306 313
261 260 259 258 257 257 257 256 256 255 254 253 251 250 248 247 246 245 243 241 240 238 237 236 235 234 233 232 231 232 230 230 230 229 227 226 225 226 228 228 226 225 227 228 228 228 229 230 231 231 231 230 230 230 230 231 231 231 231 230 229 229 229 230 230 229 230 233 237 238 241 245 250 254 258 263 269 274 278 280 280 281 286 294 300 301 303 311
261 260 259 258 257 256 255 254 254 254 253 253 252 251 249 248 246 245 244 243 242 240 239 237 236 235 234 233 232 232 231 230 231 230 228 227 226 226 227 228 228 227 227 227 228 228 227 229 230 231 231 231 231 231 232 232 232 232 232 231 231 230 231 232 232 231 231 234 239 241 243 243 244 248 253 258 263 267 274 278 275 276 286 294 297 297 302 310
261 260 259 258 257 256 255 254 253 252 252 251 251 251 250 249 247 246 245 244 243 242 240 239 237 236 235 234 233 233 232 231 231 230 229 228 227 226 226 227 228 228 227 227 228 228 227 226 227 230 231 231 231 231 232 232 232 232 231 231 231 231 232 232 233 233 233 234 238 241 242 242 244 248 250 254 258 262 268 271 269 277 288 291 290 294 303 309
261 260 258 257 256 256 255 254 253 252 251 250 250 249 249 249 248 247 246 244 243 242 241 240 239 238 236 235 234 233 233 232 232 231 230 229 228 227 226 227 227 227 228 228 228 228 227 226 226 227 229 230 230 231 232 232 233 233 232 232 232 231 232 233 233 235 235 236 237 240 242 242 243 246 248 251 256 260 261 260 264 278 287 284 283 293 302 307
261 260 259 257 256 255 255 254 253 253 252 250 249 249 248 248 247 247 247 246 244 243 242 241 240 239 238 237 235 234 234 233 233 232 231 230 229 228 227 227 227 227 227 227 228 228 228 227 226 225 227 229 230 230 232 232 233 234 234 234 233 232 233 233 234 235 236 237 237 239 241 242 243 244 247 250 255 258 256 258 265 274 278 271 274 291 299 301
260 259 259 258 256 255 254 253 253 252 252 251 250 249 248 247 247 246 246 246 245 244 243 242 241 239 238 238 236 235 235 234 234 233 232 231 230 229 228 227 227 227 227 227 227 227 227 227 227 226 226 227 228 230 232 232 233 234 234 234 233 233 234 234 235 235 236 237 237 238 240 242 243 244 245 248 252 254 255 258 263 270 270 261 271 289 295 295
260 259 258 257 256 255 254 253 252 251 251 251 250 250 249 247 247 246 245 245 245 244 244 243 241 240 239 238 237 236 235 235 235 234 233 232 231 230 229 228 227 228 227 227 227 227 227 227 227 227 226 227 227 229 231 231 231 232 232 233 233 233 234 234 235 236 236 237 238 238 239 241 243 244 245 246 249 250 252 257 262 268 265 258 272 285 288 288
260 259 258 257 256 255 254 253 252 251 251 250 250 249 249 248 247 246 245 245 244 244 243 243 242 241 240 239 237 236 235 235 235 235 234 233 232 231 230 229 228 228 227 227 227 227 227 227 227 227 227 228 228 228 230 229 229 230 231 232 233 233 234 235 236 236 237 238 239 239 240 241 243 245 245 245 248 248 250 256 261 263 258 258 268 272 277 282
258 258 257 257 256 255 254 253 252 251 250 250 250 249 249 248 248 247 246 245 244 243 243 242 242 241 241 240 238 237 236 235 235 235 235 234 233 232 231 230 228 228 228 227 227 226 226 227 227 227 227 228 227 226 227 228 228 231 232 232 233 234 235 235 236 237 238 239 240 240 241 241 243 245 245 245 248 248 249 253 256 253 251 259 259 256 271 278
256 256 255 255 255 255 254 253 252 251 250 250 249 249 248 248 248 247 246 245 244 243 243 242 241 241 241 240 239 238 237 235 234 235 235 235 234 233 232 231 229 229 228 228 227 226 226 226 226 227 227 227 227 225 227 228 228 231 233 232 233 234 234 235 236 237 238 239 239 240 241 242 243 245 244 244 244 245 248 249 247 245 247 254 245 235 264 274
257 255 254 254 253 253 253 253 252 251 251 250 249 249 248 248 247 247 246 246 245 244 243 242 241 241 240 240 239 238 238 237 235 234 235 235 234 234 233 232 230 229 229 229 228 227 226 225 225 226 227 228 228 227 228 229 228 230 232 232 232 233 234 234 235 236 236 237 238 239 240 241 241 241 243 244 242 242 245 243 240 239 240 240 220 207 248 264
259 257 255 254 253 252 252 252 251 251 250 250 249 249 249 248 247 247 246 246 245 244 243 242 242 241 240 240 239 238 238 237 236 235 235 234 235 234 234 233 232 230 229 229 229 228 226 225 225 227 227 228 228 228 228 229 228 229 230 231 231 231 232 233 234 235 235 236 237 238 238 239 239 240 241 241 240 240 239 236 234 231 229 227 210 194 222 246
258 257 257 256 255 253 251 251 250 250 250 249 249 248 248 248 247 247 246 246 245 244 244 243 242 241 240 240 239 239 238 237 236 236 235 234 234 234 234 234 233 231 230 229 229 228 226 225 225 226 227 227 228 228 228 229 229 228 228 230 230 230 231 231 233 234 235 235 236 237 237 238 238 239 238 236 235 234 231 229 227 225 223 222 212 200 212 228
257 257 256 256 256 256 254 252 250 250 249 249 248 247 247 247 247 247 246 246 245 245 244 243 242 241 241 240 239 239 238 237 236 236 236 235 235 234 234 235 234 232 231 229 229 228 227 226 225 226 227 227 227 228 228 228 229 228 227 228 229 230 229 229 230 231 233 234 235 236 236 237 236 235 233 232 231 228 225 224 221 219 220 217 212 210 211 215
257 257 256 255 256 256 256 254 253 251 250 249 248 248 247 246 246 246 246 246 245 245 245 243 242 242 241 241 240 239 238 237 236 236 236 236 235 234 233 234 234 233 232 230 228 228 227 227 226 226 226 227 226 227 228 228 228 227 227 228 229 229 228 227 227 229 230 230 230 231 234 235 234 232 229 228 227 223 221 220 214 213 215 214 214 214 209 208
257 257 256 256 255 255 256 255 254 253 252 250 249 248 247 246 246 246 245 245 244 244 245 244 243 242 241 241 240 239 238 238 237 236 237 236 235 234 233 233 234 233 233 231 229 227 227 228 228 227 226 227 227 227 228 228 227 227 227 229 230 230 228 226 226 227 228 226 224 225 227 228 227 226 224 223 220 217 217 213 209 210 211 213 216 211 207 209
257 256 256 256 255 255 255 256 255 254 253 252 251 249 248 247 247 246 246 245 244 243 244 244 243 242 242 241 240 240 239 238 237 236 237 237 235 234 234 233 233 233 232 232 230 228 227 227 228 228 227 227 227 226 227 227 227 227 227 229 231 230 228 227 226 225 224 223 219 218 221 221 220 220 220 219 216 215 214 208 206 208 208 212 215 208 204 209
260 258 257 256 256 255 255 255 255 255 254 253 253 252 251 249 248 247 247 246 245 244 244 244 244 243 242 242 241 240 239 238 237 237 236 236 236 235 234 233 233 233 232 232 231 229 227 226 227 228 227 227 226 226 226 226 226 226 226 228 230 231 230 228 226 224 223 221 217 215 218 219 218 219 218 216 216 216 211 205 206 208 208 212 213 205 201 205
265 262 260 258 258 257 256 255 255 254 254 254 254 253 252 252 251 250 249 248 247 246 245 245 246 245 244 243 243 242 241 239 238 237 237 237 236 235 235 233 233 233 232 231 230 230 229 227 226 227 228 227 226 226 226 226 225 225 225 226 228 230 230 227 225 223 222 221 217 214 216 216 215 217 218 215 214 212 207 204 206 209 209 212 212 205 199 201
272 267 264 262 261 259 259 257 256 256 255 255 255 255 254 254 253 253 252 251 250 249 247 246 247 247 246 244 244 244 242 241 239 238 237 237 236 235 235 234 233 232 231 230 229 229 229 228 227 227 228 228 227 226 226 226 225 226 226 225 227 228 229 227 224 222 220 219 217 215 215 214 213 215 216 214 211 208 206 205 205 207 210 212 211 207 202 202
283 276 270 267 264 262 261 260 259 259 258 257 257 256 256 256 255 255 255 254 253 252 251 249 247 247 247 245 244 243 243 241 240 238 237 237 236 236 235 234 233 232 231 230 229 228 228 227 227 226 226 227 228 227 227 226 226 226 227 226 226 227 228 227 225 222 219 216 217 216 215 213 213 214 215 214 212 208 207 206 206 207 210 210 208 206 204 204
292 285 279 274 269 266 264 262 261 260 259 259 258 257 257 256 256 256 256 255 255 254 253 251 249 248 247 246 243 242 242 240 239 239 237 236 236 236 235 234 233 232 232 231 229 228 228 227 226 226 225 225 226 227 227 226 226 226 226 225 225 226 227 228 226 223 217 214 217 218 214 211 212 215 216 214 213 211 208 207 207 207 209 208 205 204 206 205
295 289 284 279 275 271 268 266 264 262 260 259 258 258 257 257 256 256 256 255 255 255 254 253 251 249 248 246 244 243 242 240 238 238 237 236 235 235 234 233 232 232 232 231 229 228 228 226 226 226 226 225 225 226 226 225 226 227 226 226 225 225 226 227 227 224 216 212 217 219 214 210 212 216 217 214 214 212 209 208 207 207 207 207 205 204 206 205
297 291 286 282 278 274 271 269 266 264 262 260 259 258 257 257 256 256 256 256 255 254 254 253 252 251 249 247 245 244 243 240 238 238 236 235 235 234 233 232 232 232 231 231 229 228 228 227 225 225 226 226 224 224 226 225 225 226 225 225 224 223 224 225 225 224 218 211 216 219 213 209 213 217 217 215 214 211 207 208 208 207 207 206 204 203 204 205
298 293 288 284 279 275 272 270 267 265 263 261 260 259 258 257 256 256 256 255 255 254 254 253 252 251 250 248 246 244 243 240 238 237 236 234 234 234 233 231 232 232 232 232 230 228 228 227 225 223 224 224 223 222 224 225 225 225 224 223 223 221 221 224 224 224 220 212 214 217 212 209 213 216 216 216 216 211 206 206 207 207 205 203 201 202 204 204
298 293 289 285 280 276 273 270 267 265 263 262 260 258 258 257 256 256 255 254 254 254 253 252 252 251 250 248 246 244 243 240 238 238 236 234 233 234 232 230 231 232 231 231 230 228 227 227 226 224 223 224 223 221 223 225 225 224 224 222 222 221 220 222 223 223 221 214 213 215 212 210 212 215 216 215 215 213 207 204 205 204 202 199 199 201 202 203
298 294 290 286 282 278 274 271 268 266 264 262 260 258 257 257 256 255 254 254 254 254 253 252 251 251 249 248 245 244 244 240 236 237 236 233 233 233 232 229 229 230 230 230 230 228 226 226 227 225 223 223 223 222 223 225 225 224 224 222 221 220 219 220 222 222 220 215 213 214 212 210 212 215 216 214 214 214 208 205 204 202 199 197 199 198 198 201
301 296 291 286 283 280 276 273 269 267 265 263 261 259 258 257 256 255 254 254 253 254 254 253 251 251 250 248 246 244 244 241 236 237 237 233 232 232 231 228 228 229 229 229 229 228 226 226 226 225 223 222 222 222 223 225 225 225 224 222 221 220 218 219 221 221 219 215 213 213 212 210 210 213 216 214 213 214 210 205 203 201 199 199 200 198 195 199
305 299 294 289 284 281 278 275 271 269 266 264 263 261 259 257 257 256 255 255 254 254 254 253 251 251 250 250 247 243 244 243 237 236 237 233 230 230 230 228 227 228 228 228 228 228 226 225 226 225 223 221 221 220 221 224 225 225 224 223 223 222 220 219 220 219 217 215 214 212 211 210 210 212 215 214 212 213 212 206 202 202 201 199 200 199 196 198
308 301 297 293 288 283 280 277 273 271 268 266 264 262 260 259 257 257 256 255 254 253 253 253 251 251 250 249 248 245 243 243 240 237 236 233 230 228 228 227 227 227 228 228 227 227 226 224 225 224 222 221 220 219 219 221 223 223 222 221 222 223 221 220 220 219 217 215 214 212 211 210 211 211 213 214 212 212 214 208 203 203 201 199 200 200 197 198
310 303 299 295 290 286 282 278 275 272 269 267 265 263 262 260 259 258 256 255 255 254 253 253 252 251 250 248 248 246 243 242 242 240 237 234 231 228 226 226 226 226 227 227 227 226 225 224 225 224 222 220 220 219 218 219 222 222 221 220 220 221 221 220 219 220 218 216 214 212 210 210 211 211 212 212 210 210 212 209 204 204 202 198 199 201 199 199
312 305 301 296 291 288 283 279 276 273 270 267 266 264 263 262 260 259 258 257 256 254 253 253 252 251 250 249 248 247 245 242 242 242 239 235 231 227 225 225 225 225 225 226 226 225 225 224 224 225 223 220 220 220 218 218 221 221 220 219 218 218 219 218 217 218 217 215 215 214 211 210 211 211 211 211 210 208 211 209 204 204 203 199 199 201 200 200
314 308 302 296 292 288 284 280 276 273 271 268 266 265 264 263 261 260 259 258 257 256 254 253 253 252 251 250 248 247 246 244 243 242 240 238 232 226 224 224 224 225 225 225 226 224 223 223 223 223 223 220 220 220 219 218 220 222 221 219 218 217 218 217 215 215 216 214 213 214 212 210 211 211 210 211 211 209 210 210 207 206 203 199 200 201 199 200
319 313 306 299 293 289 285 281 278 275 273 270 268 267 265 264 263 261 260 259 258 258 257 254 253 253 252 251 250 248 247 246 245 244 242 240 235 227 223 223 224 225 225 225 225 224 222 222 222 222 222 220 218 219 219 218 219 221 222 221 219 218 218 218 214 213 214 213 212 212 212 211 211 211 209 210 211 210 210 211 210 208 204 201 202 202 200 201
326 320 313 305 299 294 288 284 280 277 275 273 271 269 267 265 264 262 261 260 259 258 258 257 255 254 254 252 250 250 250 248 247 245 243 242 238 230 225 222 222 225 225 224 224 223 222 221 221 221 222 220 218 217 217 217 216 217 220 220 219 218 219 219 216 214 213 213 212 212 212 211 210 210 209 208 211 211 209 210 212 210 204 202 203 203 202 202
332 327 321 313 307 301 295 290 285 281 277 275 272 270 268 266 264 263 262 261 261 259 259 259 258 256 256 255 253 251 251 250 248 247 244 242 240 234 228 224 222 224 226 224 223 223 222 221 221 221 221 220 219 217 217 217 216 216 218 218 217 217 218 218 216 214 213 213 212 212 213 212 210 210 209 208 209 211 210 210 213 212 206 204 204 204 203 203
337 332 326 319 313 307 301 295 290 286 282 278 274 272 270 268 267 266 266 264 264 263 261 261 260 258 257 258 257 254 252 251 250 248 246 244 242 237 232 228 223 224 226 226 224 223 222 221 220 220 220 220 219 218 216 216 217 216 217 218 216 215 217 217 216 214 213 213 212 212 213 214 212 209 208 207 207 209 210 211 213 212 207 204 205 203 203 204
341 337 331 324 318 313 306 300 295 291 287 283 280 277 274 272 271 270 269 268 268 267 265 263 263 263 261 259 258 256 255 253 252 250 249 247 244 240 235 231 227 225 225 227 226 224 222 221 220 220 219 219 219 218 216 215 216 215 216 218 217 215 215 216 216 215 214 214 214 212 212 214 213 210 208 209 207 208 211 212 213 212 207 205 205 204 204 206
342 338 334 329 322 317 311 305 299 295 291 287 284 282 279 277 275 273 272 271 270 270 269 266 265 265 264 261 260 259 259 257 256 254 252 249 245 242 237 233 230 227 225 226 227 226 223 222 220 220 219 219 220 219 216 215 215 215 215 217 218 217 215 214 214 213 213 213 213 213 214 214 214 212 209 209 208 208 212 214 214 212 208 206 206 205 206 208
344 340 337 332 327 322 316 311 306 301 297 294 291 289 286 283 280 277 275 273 272 271 270 269 267 265 264 263 264 264 263 262 261 260 257 252 246 242 239 235 231 229 226 225 226 227 225 222 220 220 219 219 220 220 217 216 216 215 214 216 217 217 215 214 213 212 213 213 212 213 214 214 214 213 211 209 209 209 212 214 214 212 209 207 206 206 207 208
346 344 341 338 334 330 324 318 314 308 305 302 298 295 291 287 284 281 279 276 273 271 269 268 267 266 267 268 269 268 267 267 266 263 259 255 249 244 239 236 232 230 227 225 224 225 225 222 219 219 219 219 220 220 218 216 216 215 214 215 216 216 214 214 213 211 211 211 211 212 214 215 215 215 213 210 209 210 212 214 215 213 210 209 209 207 207 209
350 348 346 344 342 339 333 327 322 316 311 307 303 299 295 291 288 286 282 279 275 271 268 266 267 269 271 273 274 274 273 271 269 265 260 257 253 248 242 237 233 229 226 225 224 224 224 222 219 218 218 218 219 220 219 216 215 215 214 214 215 215 214 213 212 212 211 210 210 210 211 214 215 215 214 212 210 210 211 213 216 215 210 209 210 210 210 210
Height
10918 10918 10919 10919 10919 10920 10921 10922 10923 10924 10925 10926 10928 10929 10931 10932 10934 10936 10938 10939 10941 10943 10945 10947 10948 10949 10950 10951 10952 10952 10954 10956 10958 10961 10963 10964 10967 10970 10972 10974 10976 10978 10980 10982 10985 10988 10990 10993 10995 10998 11000 11002 11003 11005 11007 11008 11009 11010 11011 11010 11011 11012 11014 11016 11017 11019 11019 11020 11023 11025 11026 11024 11024 11023 11020 11020 11022 11022 11021 11021 11020 11019 11018 11016 11015 11014 11013 11011
10914 10914 10915 10915 10916 10916 10917 10918 10919 10920 10921 10922 10924 10925 10927 10928 10930 10932 10934 10936 10937 10939 10941 10943 10945 10946 10948 10948 10949 10950 10951 10953 10955 10958 10959 10961 10964 10967 10969 10970 10972 10975 10977 10979 10982 10985 10987 10990 10992 10994 10996 10998 11000 11002 11004 11005 11006 11007 11008 11008 11009 11010 11012 11014 11016 11017 11018 11019 11021 11022 11023 11024 11026 11024 11022 11020 11020 11022 11021 11020 11019 11018 11018 11016 11015 11014 11012 11011
10910 10910 10910 10911 10912 10912 10913 10914 10915 10915 10916 10918 10919 10920 10922 10924 10926 10927 10929 10931 10933 10935 10937 10939 10941 10943 10944 10946 10947 10947 10948 10950 10952 10954 10956 10958 10960 10963 10965 10967 10969 10971 10973 10975 10978 10981 10984 10986 10988 10990 10992 10994 10996 10999 11001 11003 11004 11005 11006 11007 11009 11009 11011 11014 11015 11015 11017 11018 11019 11020 11021 11025 11026 11023 11024 11022 11020 11021 11020 11019 11019 11018 11017 11016 11015 11014 11012 11011
10905 10905 10906 10906 10907 10908 10909 10909 10910 10911 10912 10913 10914 10916 10917 10919 10921 10922 10924 10927 10929 10930 10932 10935 10937 10939 10941 10942 10943 10945 10946 10946 10948 10951 10952 10955 10957 10959 10961 10963 10965 10967 10969 10972 10975 10978 10981 10983 10985 10987 10990 10992 10994 10996 10999 11001 11002 11003 11004 11006 11007 11008 11010 11013 11013 11014 11016 11017 11017 11018 11020 11022 11023 11022 11022 11021 11020 11022 11019 11018 11018 11017 11017 11016 11015 11014 11012 11011
10900 10900 10901 10901 10902 10902 10903 10904 10905 10906 10907 10908 10910 10911 10913 10914 10915 10917 10919 10921 10924 10925 10928 10930 10932 10934 10936 10938 10940 10942 10942 10943 10946 10948 10949 10951 10954 10955 10957 10959 10961 10963 10966 10969 10972 10975 10978 10980 10983 10985 10987 10990 10992 10994 10997 10999 11000 11001 11003 11004 11006 11006 11009 11011 11012 11014 11015 11015 11014 11016 11017 11018 11019 11018 11018 11017 11018 11020 11018 11018 11017 11016 11017 11015 11015 11014 11013 11011
10895 10895 10896 10896 10897 10897 10898 10899 10900 10901 10902 10903 10904 10906 10907 10909 10910 10912 10914 10916 10918 10920 10923 10925 10927 10930 10931 10934 10935 10937 10939 10940 10942 10943 10945 10948 10950 10952 10953 10954 10957 10959 10962 10965 10968 10971 10974 10977 10980 10982 10985 10987 10990 10992 10995 10997 10998 10999 11001 11003 11004 11005 11008 11010 11010 11013 11014 11013 11011 11012 11015 11014 11015 11017 11017 11016 11016 11017 11016 11017 11017 11016 11016 11015 11014 11014 11013 11012
10890 10890 10890 10891 10892 10892 10893 10894 10895 10896 10896 10897 10899 10900 10902 10903 10905 10906 10908 10910 10913 10915 10918 10920 10922 10924 10926 10929 10931 10933 10934 10935 10938 10940 10942 10945 10946 10948 10949 10951 10953 10955 10958 10962 10964 10967 10971 10974 10976 10979 10982 10984 10986 10989 10992 10994 10995 10997 10998 11000 11002 11003 11005 11007 11009 11011 11013 11012 11009 11010 11013 11013 11015 11017 11015 11015 11015 11015 11015 11017 11016 11015 11015 11014 11014 11013 11012 11012
10883 10884 10884 10885 10886 10887 10888 10889 10889 10890 10891 10892 10893 10895 10896 10897 10899 10901 10903 10905 10907 10910 10912 10914 10917 10918 10921 10924 10926 10928 10928 10930 10934 10936 10938 10941 10942 10944 10946 10948 10949 10951 10954 10957 10960 10963 10966 10969 10971 10975 10978 10980 10983 10986 10988 10990 10991 10993 10995 10997 10999 11000 11002 11003 11006 11009 11011 11012 11009 11009 11010 11009 11013 11015 11012 11012 11014 11015 11015 11016 11016 11015 11014 11014 11014 11013 11013 11012
10877 10877 10878 10878 10879 10880 10881 10882 10883 10884 10885 10886 10888 10889 10890 10892 10893 10895 10897 10899 10901 10904 10906 10909 10911 10913 10916 10918 10920 10923 10922 10925 10929 10930 10933 10937 10938 10939 10941 10944 10946 10947 10950 10953 10956 10959 10961 10964 10967 10971 10974 10977 10980 10983 10985 10986 10987 10989 10992 10994 10996 10997 10998 10999 11003 11006 11009 11011 11010 11010 11007 11003 11007 11011 11010 11011 11012 11013 11014 11014 11014 11014 11014 11013 11013 11013 11013 11012
10869 10870 10871 10871 10872 10873 10874 10875 10877 10878 10879 10880 10882 10883 10884 10886 10887 10889 10891 10893 10895 10898 10900 10902 10905 10907 10910 10912 10915 10916 10917 10921 10923 10924 10929 10931 10933 10935 10937 10940 10942 10943 10945 10948 10952 10954 10956 10960 10964 10967 10970 10973 10975 10978 10979 10980 10983 10987 10988 10989 10991 10993 10995 10996 10999 11003 11005 11008 11009 11009 11007 11005 11006 11008 11009 11010 11011 11012 11013 11014 11013 11013 11013 11013 11013 11013 11013 11012
10861 10862 10863 10864 10865 10866 10867 10868 10869 10871 10872 10874 10875 10876 10877 10879 10881 10883 10885 10887 10889 10891 10894 10896 10898 10901 10904 10906 10909 10910 10912 10916 10916 10919 10923 10925 10928 10931 10932 10935 10937 10940 10941 10944 10947 10949 10952 10956 10959 10962 10965 10967 10970 10972 10974 10977 10980 10982 10983 10985 10988 10990 10992 10994 10996 10999 11002 11005 11006 11006 11007 11008 11008 11008 11009 11010 11010 11011 11012 11013 11013 11013 11013 11013 11013 11013 11012 11012
10852 10854 10855 10856 10857 10858 10859 10860 10861 10863 10865 10866 10868 10869 10870 10872 10874 10876 10878 10880 10882 10884 10887 10889 10892 10894 10897 10900 10902 10904 10907 10909 10910 10913 10917 10919 10923 10926 10928 10930 10933 10936 10937 10940 10942 10945 10949 10951 10954 10956 10959 10962 10965 10968 10970 10973 10975 10976 10979 10981 10985 10987 10989 10991 10993 10996 10999 11002 11004 11004 11006 11007 11007 11008 11009 11010 11010 11011 11011 11012 11013 11012 11012 11012 11012 11012 11012 11011
10842 10844 10845 10847 10848 10849 10850 10852 10853 10855 10857 10859 10860 10861 10862 10865 10867 10869 10870 10873 10875 10877 10880 10882 10885 10888 10890 10893 10896 10898 10900 10902 10904 10907 10910 10914 10917 10920 10923 10925 10928 10931 10933 10936 10938 10940 10944 10947 10949 10951 10954 10957 10960 10964 10965 10966 10968 10971 10974 10977 10981 10984 10985 10987 10990 10993 10996 11000 11001 11002 11003 11005 11006 11007 11008 11009 11009 11011 11011 11012 11013 11012 11011 11011 11012 11011 11011 11010
10832 10833 10835 10836 10838 10840 10841 10843 10845 10847 10848 10850 10852 10853 10854 10856 10859 10861 10863 10865 10868 10870 10872 10875 10878 10881 10883 10886 10889 10891 10893 10896 10898 10901 10904 10908 10911 10914 10917 10920 10923 10925 10928 10931 10933 10936 10939 10942 10944 10947 10949 10951 10955 10958 10958 10960 10964 10967 10970 10974 10977 10979 10981 10984 10987 10990 10993 10996 10999 11000 11001 11003 11004 11005 11006 11007 11008 11010 11011 11012 11013 11012 11010 11010 11011 11010 11010 11009
10821 10822 10824 10825 10827 10829 10831 10833 10835 10837 10839 10841 10843 10844 10845 10848 10850 10852 10855 10857 10860 10862 10865 10868 10870 10873 10876 10878 10881 10884 10886 10889 10892 10894 10898 10901 10904 10908 10912 10914 10917 10919 10923 10926 10928 10931 10934 10937 10940 10942 10945 10946 10950 10952 10952 10956 10960 10963 10967 10968 10971 10974 10977 10981 10985 10987 10990 10993 10996 10998 10999 11000 11001 11003 11004 11005 11006 11007 11009 11010 11012 11012 11010 11009 11009 11009 11009 11008
10810 10811 10813 10814 10816 10818 10820 10822 10825 10827 10829 10831 10833 10834 10836 10839 10841 10843 10846 10849 10851 10854 10857 10860 10863 10866 10868 10870 10874 10877 10879 10882 10884 10887 10890 10893 10897 10901 10905 10907 10910 10913 10917 10921 10923 10926 10930 10933 10935 10938 10940 10943 10946 10946 10947 10953 10957 10959 10960 10961 10966 10970 10973 10978 10981 10983 10986 10989 10992 10994 10996 10996 10998 11000 11002 11004 11004 11005 11006 11008 11009 11010 11010 11008 11007 11008 11008 11008
10799 10800 10801 10803 10804 10806 10809 10811 10814 10816 10818 10820 10822 10824 10826 10828 10831 10834 10837 10840 10843 10845 10848 10851 10854 10857 10860 10862 10866 10869 10872 10875 10877 10880 10883 10886 10890 10894 10896 10900 10905 10908 10911 10915 10918 10921 10924 10927 10930 10933 10936 10938 10941 10942 10945 10950 10951 10950 10951 10955 10961 10966 10969 10974 10977 10978 10982 10985 10987 10990 10992 10993 10996 10997 10999 11001 11001 11003 11005 11005 11006 11008 11008 11007 11006 11006 11007 11007
10788 10789 10790 10791 10793 10795 10797 10799 10802 10805 10807 10809 10810 10812 10815 10817 10821 10824 10826 10830 10833 10836 10839 10842 10845 10848 10851 10854 10857 10861 10864 10867 10869 10872 10875 10878 10883 10886 10889 10894 10898 10901 10905 10909 10912 10915 10918 10921 10925 10929 10933 10935 10937 10940 10942 10942 10941 10942 10946 10952 10958 10961 10966 10970 10971 10974 10978 10980 10983 10986 10989 10991 10993 10994 10996 10998 10999 11000 11002 11002 11003 11005 11006 11006 11005 11005 11005 11006
10777 10777 10778 10780 10781 10783 10785 10788 10791 10794 10796 10797 10799 10801 10803 10806 10809 10812 10816 10819 10823 10826 10829 10832 10835 10839 10842 10845 10848 10852 10855 10859 10861 10864 10867 10871 10875 10877 10881 10886 10891 10894 10898 10902 10905 10909 10912 10916 10920 10926 10929 10929 10929 10932 10932 10932 10935 10939 10945 10950 10954 10958 10962 10965 10967 10970 10974 10977 10979 10982 10985 10987 10989 10990 10992 10995 10995 10997 10999 10999 11000 11002 11005 11005 11003 11003 11004 11004
10767 10766 10767 10768 10769 10771 10773 10776 10779 10782 10784 10786 10788 10790 10792 10795 10798 10801 10804 10808 10811 10815 10818 10822 10825 10829 10833 10835 10839 10843 10846 10850 10853 10856 10859 10862 10866 10869 10874 10878 10883 10887 10891 10895 10898 10902 10906 10911 10917 10921 10922 10919 10921 10925 10925 10928 10934 10937 10941 10947 10950 10954 10957 10960 10962 10966 10969 10972 10974 10977 10980 10982 10984 10985 10988 10992 10993 10994 10996 10997 10998 11000 11003 11003 11002 11002 11002 11003
10755 10755 10756 10757 10758 10760 10762 10764 10767 10770 10772 10775 10777 10779 10781 10784 10787 10789 10793 10796 10799 10803 10807 10811 10814 10819 10822 10824 10829 10833 10836 10840 10845 10848 10851 10854 10856 10860 10865 10870 10876 10881 10884 10887 10890 10894 10901 10907 10913 10913 10912 10912 10916 10921 10922 10925 10931 10934 10938 10943 10946 10949 10952 10954 10957 10960 10964 10966 10969 10972 10975 10978 10979 10981 10984 10988 10989 10991 10992 10994 10996 10998 11000 11001 11001 11001 11001 11002
10743 10744 10745 10745 10746 10748 10751 10753 10755 10758 10760 10763 10766 10768 10770 10772 10775 10778 10781 10784 10787 10791 10796 10799 10803 10807 10810 10813 10818 10822 10826 10831 10835 10839 10842 10845 10847 10851 10858 10861 10867 10873 10876 10879 10883 10889 10896 10902 10905 10903 10904 10907 10912 10916 10918 10921 10927 10931 10935 10938 10941 10944 10947 10950 10952 10956 10959 10962 10965 10968 10971 10973 10975 10978 10981 10984 10986 10987 10989 10992 10994 10996 10998 10999 10999 11000 11000 11001
10731 10733 10734 10735 10735 10736 10739 10741 10743 10746 10748 10751 10754 10757 10759 10761 10764 10767 10770 10773 10776 10780 10784 10787 10792 10796 10798 10802 10806 10810 10815 10820 10825 10829 10833 10836 10838 10845 10851 10852 10858 10864 10867 10872 10876 10881 10889 10893 10894 10894 10897 10901 10905 10909 10912 10916 10922 10927 10930 10932 10935 10939 10942 10946 10948 10951 10955 10957 10961 10964 10966 10968 10971 10975 10978 10980 10982 10983 10986 10989 10991 10993 10995 10997 10998 10998 10999 11000
10721 10722 10723 10724 10724 10724 10727 10729 10732 10734 10737 10739 10741 10744 10747 10749 10752 10755 10758 10761 10764 10768 10771 10775 10780 10784 10787 10790 10794 10799 10803 10807 10814 10820 10822 10825 10831 10838 10842 10842 10847 10854 10858 10863 10867 10873 10880 10882 10884 10887 10890 10894 10899 10903 10907 10912 10917 10922 10925 10927 10930 10933 10937 10941 10944 10947 10950 10954 10958 10960 10962 10965 10969 10972 10974 10975 10977 10979 10982 10984 10987 10990 10991 10993 10995 10996 10997 10998
10711 10712 10713 10714 10714 10714 10715 10717 10721 10722 10725 10727 10729 10732 10735 10738 10741 10743 10746 10748 10752 10758 10758 10762 10769 10771 10775 10779 10782 10787 10791 10796 10804 10809 10811 10815 10822 10828 10832 10834 10837 10843 10847 10853 10858 10865 10871 10872 10876 10881 10883 10887 10892 10897 10902 10907 10911 10916 10919 10921 10923 10926 10932 10936 10939 10942 10946 10951 10954 10956 10958 10962 10965 10967 10969 10970 10972 10975 10978 10980 10983 10986 10988 10989 10991 10993 10995 10996
10702 10702 10704 10704 10705 10705 10705 10707 10710 10712 10713 10715 10717 10720 10722 10726 10728 10731 10735 10734 10739 10748 10746 10749 10757 10758 10762 10767 10770 10774 10779 10786 10793 10797 10799 10804 10811 10817 10821 10824 10827 10832 10836 10842 10849 10857 10863 10865 10868 10873 10877 10880 10886 10892 10896 10901 10906 10910 10914 10915 10916 10921 10927 10932 10935 10939 10943 10947 10950 10952 10955 10958 10960 10962 10964 10966 10968 10971 10974 10977 10980 10982 10983 10985 10988 10990 10992 10993
10693 10693 10694 10695 10695 10695 10696 10697 10699 10701 10703 10703 10706 10709 10710 10714 10716 10718 10722 10719 10727 10739 10735 10736 10742 10745 10751 10755 10757 10762 10768 10775 10779 10784 10789 10792 10799 10805 10808 10813 10816 10820 10825 10831 10841 10849 10854 10856 10860 10866 10869 10873 10880 10886 10890 10894 10899 10904 10908 10909 10910 10915 10922 10927 10931 10935 10939 10942 10946 10949 10951 10954 10956 10958 10960 10962 10965 10968 10970 10973 10975 10978 10980 10981 10985 10987 10988 10990
10684 10684 10685 10685 10685 10685 10686 10687 10689 10690 10692 10692 10695 10697 10699 10702 10703 10707 10709 10706 10716 10727 10723 10724 10728 10733 10741 10743 10744 10750 10756 10762 10767 10774 10778 10778 10785 10792 10794 10800 10805 10809 10815 10823 10832 10839 10843 10848 10853 10856 10859 10865 10873 10877 10881 10885 10891 10896 10899 10901 10904 10910 10917 10923 10928 10932 10935 10938 10942 10946 10948 10951 10954 10955 10956 10959 10962 10965 10967 10970 10971 10974 10977 10979 10982 10984 10985 10987
10676 10676 10676 10676 10676 10676 10676 10678 10680 10680 10681 10682 10684 10686 10688 10690 10692 10695 10695 10695 10706 10712 10711 10714 10717 10721 10729 10730 10733 10738 10744 10750 10756 10762 10764 10765 10774 10778 10780 10787 10793 10797 10805 10814 10822 10828 10834 10840 10843 10845 10851 10859 10864 10867 10872 10877 10882 10887 10890 10895 10900 10905 10911 10917 10923 10927 10930 10934 10940 10944 10945 10948 10951 10951 10953 10956 10958 10961 10963 10966 10968 10971 10973 10976 10979 10982 10983 10984
10667 10667 10667 10667 10667 10667 10667 10668 10670 10670 10671 10673 10673 10675 10677 10678 10681 10682 10681 10685 10694 10695 10697 10705 10708 10709 10714 10717 10722 10727 10731 10737 10743 10749 10751 10753 10761 10765 10767 10775 10779 10783 10791 10801 10810 10817 10823 10828 10833 10840 10847 10852 10855 10859 10864 10868 10875 10879 10883 10889 10894 10898 10905 10911 10917 10921 10925 10933 10938 10940 10942 10944 10947 10949 10951 10952 10954 10956 10959 10962 10965 10968 10971 10973 10976 10979 10980 10982
10659 10658 10657 10658 10657 10657 10657 10658 10660 10660 10661 10662 10663 10665 10666 10667 10669 10669 10670 10675 10680 10680 10685 10693 10695 10696 10699 10701 10708 10714 10716 10722 10729 10734 10737 10742 10748 10751 10753 10758 10762 10770 10781 10791 10800 10805 10810 10816 10824 10832 10838 10841 10846 10851 10856 10863 10870 10872 10875 10882 10887 10893 10899 10904 10910 10915 10923 10932 10934 10935 10937 10941 10944 10946 10947 10949 10950 10952 10955 10959 10963 10966 10968 10970 10974 10976 10977 10980
10652 10651 10649 10649 10648 10647 10647 10647 10648 10649 10650 10651 10652 10653 10654 10656 10657 10656 10659 10663 10666 10668 10671 10675 10679 10683 10685 10685 10694 10701 10701 10706 10714 10718 10723 10729 10734 10735 10737 10743 10753 10764 10771 10778 10785 10791 10797 10806 10816 10823 10826 10830 10837 10842 10849 10858 10861 10862 10866 10874 10881 10887 10893 10897 10903 10911 10922 10929 10929 10929 10932 10937 10941 10942 10943 10945 10947 10948 10951 10954 10959 10964 10966 10968 10971 10974 10975 10979
10646 10644 10642 10641 10640 10638 10638 10638 10637 10638 10639 10640 10641 10642 10643 10645 10644 10644 10648 10651 10653 10655 10656 10660 10665 10668 10669 10672 10681 10685 10684 10691 10701 10704 10707 10714 10718 10719 10721 10731 10743 10751 10755 10760 10770 10779 10787 10798 10808 10813 10817 10822 10828 10834 10840 10847 10850 10852 10860 10867 10875 10882 10887 10892 10899 10907 10918 10923 10922 10922 10927 10934 10938 10938 10939 10942 10943 10945 10947 10950 10955 10960 10964 10966 10969 10972 10974 10977
10638 10636 10635 10634 10632 10631 10630 10629 10628 10628 10629 10629 10630 10631 10632 10633 10633 10633 10637 10640 10641 10642 10644 10647 10651 10653 10655 10660 10667 10668 10669 10680 10688 10687 10690 10697 10702 10701 10704 10718 10731 10737 10743 10749 10760 10768 10775 10786 10795 10800 10805 10810 10819 10826 10830 10835 10838 10842 10850 10858 10866 10874 10880 10886 10892 10900 10909 10916 10916 10916 10924 10932 10933 10933 10935 10938 10939 10941 10943 10946 10951 10957 10961 10964 10967 10970 10974 10976
10630 10628 10626 10626 10624 10623 10622 10621 10620 10619 10620 10620 10620 10622 10622 10623 10623 10624 10628 10628 10628 10630 10633 10635 10638 10640 10643 10647 10651 10652 10656 10666 10671 10671 10673 10680 10684 10681 10690 10712 10724 10727 10733 10738 10746 10755 10763 10772 10777 10782 10788 10793 10805 10815 10817 10820 10825 10831 10841 10849 10857 10867 10874 10879 10885 10892 10900 10907 10908 10911 10920 10927 10927 10927 10930 10933 10936 10938 10940 10942 10946 10952 10957 10962 10966 10968 10971 10973
10620 10618 10617 10616 10615 10614 10613 10612 10611 10611 10611 10611 10612 10613 10613 10612 10614 10615 10616 10617 10618 10620 10621 10623 10627 10629 10630 10632 10636 10639 10644 10652 10656 10655 10657 10665 10668 10668 10685 10707 10711 10711 10718 10722 10729 10740 10749 10755 10759 10767 10778 10785 10796 10806 10806 10809 10816 10823 10832 10841 10850 10860 10866 10871 10877 10883 10891 10901 10904 10908 10916 10919 10920 10924 10927 10930 10933 10935 10937 10939 10941 10946 10952 10958 10962 10964 10968 10970
10611 10609 10607 10606 10604 10604 10603 10602 10602 10602 10602 10602 10602 10605 10604 10603 10605 10606 10606 10608 10609 10609 10611 10614 10617 10618 10618 10619 10624 10631 10632 10634 10640 10641 10642 10652 10657 10660 10676 10693 10694 10695 10702 10707 10714 10724 10734 10743 10748 10758 10771 10780 10789 10799 10799 10800 10807 10816 10825 10834 10841 10849 10855 10860 10866 10873 10884 10894 10900 10904 10910 10913 10917 10921 10922 10925 10929 10931 10933 10935 10938 10943 10949 10953 10955 10958 10963 10966
10603 10600 10598 10597 10594 10594 10593 10593 10593 10593 10593 10592 10593 10595 10596 10595 10596 10596 10598 10599 10599 10600 10601 10604 10607 10607 10607 10608 10615 10622 10617 10617 10629 10632 10628 10637 10646 10649 10662 10675 10678 10680 10685 10693 10700 10709 10723 10733 10734 10742 10757 10768 10778 10788 10791 10793 10801 10810 10818 10825 10831 10837 10844 10850 10857 10867 10878 10886 10891 10896 10903 10908 10913 10916 10917 10921 10925 10926 10929 10931 10935 10940 10944 10947 10950 10953 10958 10961
10596 10592 10590 10589 10587 10585 10584 10584 10584 10584 10583 10584 10584 10585 10586 10586 10587 10587 10588 10590 10590 10592 10592 10594 10598 10597 10597 10600 10605 10609 10606 10608 10620 10619 10613 10622 10633 10638 10648 10658 10663 10665 10669 10678 10685 10693 10709 10716 10717 10728 10743 10753 10762 10771 10777 10785 10792 10799 10807 10816 10823 10828 10836 10843 10849 10859 10869 10876 10882 10890 10897 10902 10907 10910 10912 10916 10920 10922 10925 10928 10932 10936 10939 10943 10946 10949 10953 10956
10590 10585 10583 10582 10579 10578 10577 10576 10576 10575 10575 10576 10575 10576 10576 10577 10578 10579 10580 10581 10581 10582 10582 10584 10588 10587 10588 10591 10593 10596 10598 10600 10603 10602 10603 10612 10620 10627 10635 10644 10650 10653 10656 10664 10671 10678 10691 10699 10705 10716 10728 10739 10750 10758 10767 10774 10775 10781 10794 10805 10813 10820 10828 10837 10843 10850 10859 10868 10876 10884 10891 10897 10900 10903 10906 10910 10915 10919 10921 10924 10928 10931 10934 10939 10942 10945 10949 10953
10583 10579 10576 10575 10573 10571 10570 10569 10568 10568 10568 10568 10567 10568 10568 10569 10570 10570 10571 10572 10572 10573 10574 10576 10578 10578 10579 10581 10583 10585 10588 10590 10590 10590 10595 10601 10606 10615 10625 10632 10636 10638 10642 10649 10653 10661 10676 10688 10696 10703 10713 10728 10736 10741 10751 10758 10760 10769 10782 10792 10800 10809 10819 10829 10838 10845 10855 10864 10870 10876 10883 10888 10892 10894 10898 10903 10908 10912 10914 10918 10923 10925 10929 10935 10939 10942 10946 10950
10576 10573 10570 10568 10566 10565 10564 10563 10562 10561 10561 10561 10560 10561 10561 10561 10562 10563 10563 10564 10564 10564 10566 10568 10568 10568 10570 10572 10574 10575 10576 10579 10579 10579 10583 10587 10593 10605 10615 10618 10621 10623 10628 10631 10635 10649 10667 10679 10687 10692 10702 10715 10722 10727 10739 10746 10749 10757 10767 10776 10787 10796 10805 10816 10827 10836 10845 10855 10862 10867 10874 10879 10881 10885 10891 10896 10901 10905 10909 10912 10916 10919 10924 10930 10934 10937 10942 10946
10570 10567 10565 10562 10560 10559 10558 10557 10556 10555 10555 10555 10555 10554 10555 10555 10555 10555 10556 10556 10556 10556 10558 10560 10560 10560 10561 10563 10564 10565 10566 10569 10569 10569 10573 10576 10581 10595 10604 10606 10608 10611 10612 10614 10621 10639 10654 10661 10668 10675 10684 10699 10712 10721 10733 10741 10743 10748 10758 10767 10776 10786 10793 10801 10814 10823 10831 10842 10850 10856 10864 10868 10872 10879 10886 10892 10897 10902 10905 10909 10913 10916 10919 10924 10929 10932 10937 10942
10563 10561 10559 10557 10555 10553 10552 10551 10550 10549 10548 10548 10548 10548 10548 10548 10548 10548 10549 10548 10549 10549 10550 10552 10553 10552 10553 10554 10555 10556 10557 10559 10560 10560 10564 10565 10570 10584 10592 10594 10597 10596 10596 10601 10611 10624 10635 10641 10652 10659 10667 10683 10698 10706 10715 10725 10733 10742 10751 10758 10769 10780 10784 10788 10800 10808 10816 10829 10838 10845 10853 10860 10866 10873 10880 10887 10893 10897 10902 10906 10910 10912 10916 10920 10924 10928 10933 10936
10557 10555 10553 10551 10550 10548 10546 10545 10544 10543 10543 10542 10542 10542 10542 10542 10541 10541 10541 10541 10542 10542 10542 10544 10545 10545 10545 10545 10547 10548 10548 10550 10551 10551 10554 10555 10558 10571 10578 10581 10584 10581 10581 10591 10599 10607 10618 10628 10638 10647 10654 10669 10682 10688 10695 10705 10713 10722 10730 10741 10758 10770 10772 10779 10792 10800 10810 10822 10830 10836 10844 10851 10859 10866 10874 10882 10887 10891 10897 10902 10904 10908 10912 10916 10919 10923 10927 10931
10552 10549 10547 10545 10544 10542 10540 10540 10538 10537 10537 10537 10536 10536 10535 10535 10535 10535 10535 10535 10535 10536 10536 10536 10537 10537 10537 10536 10538 10541 10540 10540 10540 10541 10544 10545 10548 10558 10564 10568 10573 10569 10569 10579 10585 10592 10605 10616 10625 10634 10643 10656 10666 10672 10681 10691 10700 10710 10719 10730 10744 10753 10759 10768 10779 10792 10806 10815 10820 10830 10840 10845 10851 10858 10866 10874 10880 10885 10892 10896 10898 10902 10906 10910 10913 10917 10923 10929
10549 10546 10543 10540 10538 10537 10535 10534 10533 10532 10532 10531 10531 10531 10530 10530 10529 10529 10529 10528 10528 10529 10530 10530 10529 10530 10531 10530 10530 10532 10531 10530 10530 10531 10534 10535 10539 10546 10551 10556 10561 10559 10560 10567 10572 10581 10592 10601 10612 10621 10630 10642 10650 10657 10671 10682 10691 10704 10711 10715 10723 10734 10745 10756 10770 10788 10800 10804 10812 10826 10834 10838 10844 10850 10856 10863 10869 10875 10881 10884 10886 10890 10895 10900 10904 10910 10919 10926
10544 10541 10539 10536 10534 10532 10531 10529 10528 10527 10526 10526 10526 10526 10526 10525 10524 10524 10523 10523 10522 10522 10523 10524 10523 10522 10523 10524 10522 10523 10522 10520 10521 10522 10525 10527 10530 10534 10538 10543 10546 10548 10552 10557 10562 10570 10580 10589 10601 10609 10617 10627 10632 10641 10657 10668 10677 10691 10698 10701 10710 10723 10737 10753 10772 10790 10798 10802 10814 10823 10825 10828 10834 10843 10851 10856 10861 10867 10872 10875 10879 10883 10890 10896 10902 10911 10919 10921
10540 10537 10534 10532 10530 10528 10526 10525 10524 10522 10522 10521 10521 10521 10520 10520 10519 10518 10517 10517 10516 10516 10516 10517 10517 10516 10516 10516 10515 10514 10513 10512 10512 10514 10516 10517 10519 10522 10526 10529 10532 10537 10543 10548 10552 10559 10569 10580 10590 10597 10606 10615 10619 10629 10644 10653 10662 10676 10685 10692 10705 10720 10734 10748 10764 10779 10787 10795 10807 10813 10815 10820 10826 10835 10843 10848 10856 10865 10868 10870 10874 10879 10887 10894 10902 10909 10914 10916
10538 10534 10531 10529 10527 10525 10523 10521 10520 10518 10517 10517 10516 10516 10515 10514 10513 10512 10511 10511 10511 10510 10510 10510 10510 10510 10510 10509 10508 10507 10505 10504 10504 10505 10505 10505 10507 10512 10515 10517 10520 10525 10532 10537 10541 10546 10556 10568 10578 10585 10595 10603 10609 10618 10632 10644 10654 10665 10676 10685 10697 10713 10729 10742 10755 10768 10776 10785 10797 10802 10806 10811 10817 10826 10834 10842 10851 10857 10857 10859 10865 10872 10882 10890 10895 10901 10906 10912
10536 10532 10529 10527 10524 10522 10520 10518 10517 10515 10514 10513 10512 10511 10510 10509 10508 10507 10506 10505 10505 10504 10504 10504 10503 10503 10503 10503 10502 10499 10497 10497 10497 10496 10495 10494 10496 10500 10503 10505 10509 10515 10521 10526 10529 10534 10543 10554 10564 10573 10583 10593 10600 10606 10620 10636 10647 10656 10668 10678 10686 10701 10718 10732 10744 10753 10760 10773 10786 10791 10797 10805 10812 10820 10828 10835 10840 10841 10844 10852 10860 10868 10878 10885 10890 10895 10901 10905
10534 10530 10527 10524 10522 10520 10518 10516 10514 10512 10511 10509 10508 10507 10506 10505 10504 10502 10501 10500 10500 10499 10499 10499 10498 10498 10498 10497 10495 10492 10491 10490 10489 10487 10486 10486 10487 10490 10492 10495 10499 10504 10510 10514 10519 10525 10533 10541 10551 10562 10572 10582 10588 10593 10607 10623 10631 10642 10659 10671 10678 10691 10705 10717 10730 10739 10748 10758 10766 10774 10788 10798 10803 10808 10813 10819 10824 10829 10838 10850 10854 10859 10870 10878 10884 10890 10896 10901